GLOBALSTAR M001 1 25162U 98008A 25354.84998223 -.00000088 00000+0 62984-4 0 9994 2 25162 52.0008 149.9198 0000346 323.7116 203.8298 12.38224077266833 GLOBALSTAR M004 1 25163U 98008B 25355.03843691 -.00000086 00000+0 10209-3 0 9995 2 25163 51.9977 204.1081 0003260 5.5650 150.1705 12.63411138285302 GLOBALSTAR M002 1 25164U 98008C 25355.08156503 -.00000120 00000+0 -85369-3 0 9999 2 25164 51.9992 131.5944 0002555 119.3616 240.7459 11.61514537205783 GLOBALSTAR M003 1 25165U 98008D 25355.06347801 -.00000203 00000+0 -12162-2 0 9993 2 25165 51.9924 10.9290 0007848 310.4641 80.5622 12.12040990255887 GLOBALSTAR M014 1 25306U 98023A 25354.94344177 -.00000087 00000+0 -17108-3 0 9992 2 25306 51.9859 51.2377 0000514 359.2444 171.6596 11.65483542212943 GLOBALSTAR M006 1 25307U 98023B 25355.09231387 -.00000097 00000+0 -42883-3 0 9997 2 25307 51.9934 110.3203 0004010 95.2707 75.6126 11.58178540238487 GLOBALSTAR M015 1 25308U 98023C 25355.04564306 -.00000050 00000+0 53029-3 0 9995 2 25308 51.9792 217.4758 0013662 51.0137 98.4335 11.48862823215555 GLOBALSTAR M008 1 25309U 98023D 25355.10249029 -.00000064 00000+0 25612-3 0 9997 2 25309 51.9992 16.1343 0002675 204.2383 189.9243 12.36077236260962 GLOBALSTAR M023 1 25621U 99004A 25355.05990742 -.00000063 00000+0 22932-3 0 9994 2 25621 52.0080 204.4058 0009876 174.8870 349.9003 12.62510913239339 GLOBALSTAR M040 1 25622U 99004B 25355.02528235 -.00000062 00000+0 23402-3 0 9998 2 25622 51.9893 208.9408 0002011 80.0600 70.8457 12.62025512238845 GLOBALSTAR M036 1 25623U 99004C 25355.07127207 -.00000128 00000+0 -65480-3 0 9994 2 25623 51.9966 107.7253 0010841 52.2835 118.5530 11.86617640201163 GLOBALSTAR M038 1 25624U 99004D 25355.01022964 -.00000056 00000+0 32399-3 0 9995 2 25624 51.9970 253.5389 0002736 75.3325 297.9120 12.32537635225411 GLOBALSTAR M022 1 25649U 99012A 25355.12410990 -.00000125 00000+0 -46069-3 0 9990 2 25649 52.0021 142.7170 0003124 160.9971 10.8841 12.02508315198864 GLOBALSTAR M041 1 25650U 99012B 25355.15070521 -.00000091 00000+0 -77610-4 0 9996 2 25650 52.0041 29.7962 0000907 338.8266 21.2533 11.96681202200665 GLOBALSTAR M046 1 25651U 99012C 25354.98610435 -.00000164 00000+0 -82567-3 0 9998 2 25651 52.0058 86.4076 0001493 249.5916 281.9671 12.09415350206265 GLOBALSTAR M037 1 25652U 99012D 25354.73142493 -.00000094 00000+0 52817-4 0 9993 2 25652 52.0025 335.9543 0001674 241.5590 289.5505 12.62458518234838 GLOBALSTAR M045 1 25676U 99019A 25354.82542050 -.00000108 00000+0 -12648-3 0 9993 2 25676 51.9949 133.3053 0000934 122.7833 43.2292 12.27070687216309 GLOBALSTAR M019 1 25677U 99019B 25354.93208684 .00000068 00000+0 16432-2 0 9995 2 25677 51.9883 276.5120 0001777 5.0246 36.0115 12.13878302207825 GLOBALSTAR M044 1 25678U 99019C 25355.13988446 -.00000011 00000+0 10140-2 0 9999 2 25678 51.9961 250.6822 0006981 42.0614 125.6472 11.90262308193582 GLOBALSTAR M042 1 25679U 99019D 25353.95895244 -.00000054 00000+0 36105-3 0 9998 2 25679 52.0007 246.5125 0003015 342.1239 31.4218 12.22094516207979 GLOBALSTAR M025 1 25770U 99031A 25354.97114029 -.00000069 00000+0 -34506-4 0 9993 2 25770 51.9828 86.5708 0002944 103.8540 67.9099 11.22558996502689 GLOBALSTAR M049 1 25771U 99031B 25355.12251721 -.00000120 00000+0 -19119-2 0 9992 2 25771 51.9854 130.3768 0002280 350.8992 9.1763 11.12123082138225 GLOBALSTAR M047 1 25772U 99031C 25354.30150242 -.00000084 00000+0 -40221-3 0 9996 2 25772 51.9823 111.4253 0016166 218.8617 141.1027 11.31931786492183 GLOBALSTAR M052 1 25773U 99031D 25355.06685323 .00000012 00000+0 26224-2 0 9999 2 25773 51.9847 236.5525 0003390 104.1054 39.5713 11.15062676499351 GLOBALSTAR M035 1 25851U 99037A 25355.08719273 -.00000027 00000+0 13875-2 0 9991 2 25851 51.9985 358.1587 0013614 284.9275 116.4306 11.04540340116910 GLOBALSTAR M032 1 25852U 99037B 25354.74980557 -.00000049 00000+0 56682-3 0 9997 2 25852 51.9913 171.2390 0013761 118.6007 241.6178 11.19075383155677 GLOBALSTAR M051 1 25853U 99037C 25355.06915737 -.00000109 00000+0 -92518-3 0 9998 2 25853 51.9819 310.0614 0000353 38.1095 321.9740 11.42202281153749 GLOBALSTAR M030 1 25854U 99037D 25354.99807388 -.00000078 00000+0 -74257-4 0 9998 2 25854 51.9895 104.4565 0003414 41.8984 318.2093 11.55111445171636 GLOBALSTAR M048 1 25872U 99041A 25354.02743116 -.00000036 00000+0 91397-3 0 9991 2 25872 51.9365 254.7944 0013316 141.8934 231.3456 11.33861106146065 GLOBALSTAR M026 1 25873U 99041B 25354.55415574 -.00000108 00000+0 -16078-2 0 9997 2 25873 52.0001 115.3381 0001795 182.6556 260.8818 11.06849030169126 GLOBALSTAR M043 1 25874U 99041C 25354.76686606 -.00000003 00000+0 19509-2 0 9992 2 25874 51.9432 8.1146 0013445 268.3028 262.2478 11.25698545143889 GLOBALSTAR M028 1 25875U 99041D 25354.69545260 -.00000098 00000+0 16658-4 0 9993 2 25875 51.9645 356.9245 0063483 116.4500 244.2892 12.50592943213517 GLOBALSTAR M024 1 25883U 99043A 25355.12465818 -.00000102 00000+0 -13157-2 0 9999 2 25883 52.0043 318.8253 0001854 37.3295 48.3299 11.10165978135620 GLOBALSTAR M027 1 25884U 99043B 25354.86101823 -.00000020 00000+0 16457-2 0 9997 2 25884 52.0236 42.6901 0021005 292.0440 67.8122 11.04372623161865 GLOBALSTAR M054 1 25885U 99043C 25355.13167872 -.00000093 00000+0 -54236-3 0 9994 2 25885 52.0112 138.0117 0005881 132.1750 39.3215 11.39224889140356 GLOBALSTAR M053 1 25886U 99043D 25355.04458000 -.00000075 00000+0 -18642-3 0 9992 2 25886 51.9982 95.6829 0003595 56.3249 114.1205 11.27668911140523 GLOBALSTAR M058 1 25907U 99049A 25354.61394042 -.00000108 00000+0 -31378-3 0 9997 2 25907 51.9970 331.3631 0001721 278.9419 81.1221 11.93206282563796 GLOBALSTAR M050 1 25908U 99049B 25354.87434177 -.00000049 00000+0 44409-3 0 9992 2 25908 52.0012 324.3958 0009475 43.4841 331.7884 12.07461653170747 GLOBALSTAR M033 1 25909U 99049C 25354.52983839 -.00000102 00000+0 -10044-3 0 9998 2 25909 51.9877 184.3035 0013126 289.9943 69.9490 12.20294799558498 GLOBALSTAR M055 1 25910U 99049D 25355.00334925 -.00000076 00000+0 15664-3 0 9992 2 25910 51.9984 184.6205 0007489 150.4438 209.6838 12.29438449191265 GLOBALSTAR M057 1 25943U 99058A 25354.82871183 -.00000083 00000+0 87400-4 0 9995 2 25943 51.9951 178.5123 0003320 53.3782 306.7372 12.24832248189808 GLOBALSTAR M059 1 25944U 99058B 25354.95070615 -.00000075 00000+0 13419-3 0 9990 2 25944 52.0035 61.9119 0000353 119.4937 51.6492 11.99988136596465 GLOBALSTAR M056 1 25945U 99058C 25355.16823822 -.00000095 00000+0 -91203-4 0 9992 2 25945 51.9980 58.4902 0001271 175.9998 208.8615 12.04780962185166 GLOBALSTAR M031 1 25946U 99058D 25351.65166691 -.00000043 00000+0 48267-3 0 9990 2 25946 51.9983 309.4344 0000939 181.2254 351.7896 12.16044933186865 GLOBALSTAR M039 1 25961U 99062A 25354.47511849 -.00000097 00000+0 36637-4 0 9992 2 25961 51.9860 61.3121 0002689 53.4685 306.6429 12.62339605203747 GLOBALSTAR M034 1 25962U 99062B 25355.18033948 -.00000044 00000+0 59151-3 0 9998 2 25962 51.9863 245.3124 0015164 36.6732 126.3239 11.79454181160456 GLOBALSTAR M029 1 25963U 99062C 25355.18612183 -.00000040 00000+0 57725-3 0 9994 2 25963 51.9825 309.1517 0002555 112.5121 260.7367 11.99904655191576 GLOBALSTAR M061 1 25964U 99062D 25355.14898329 -.00000094 00000+0 -22111-3 0 9990 2 25964 51.9806 71.9078 0005226 316.7282 53.6918 11.76777797143192 GLOBALSTAR M063 1 26081U 00008A 25354.75076091 -.00000102 00000+0 -29081-3 0 9996 2 26081 51.9986 340.2269 0004659 314.8886 216.1922 11.86178152179713 GLOBALSTAR M062 1 26082U 00008B 25355.19043677 -.00000121 00000+0 -16288-3 0 9996 2 26082 51.9853 265.8568 0007107 144.2049 7.0881 12.43478435519886 GLOBALSTAR M060 1 26083U 00008C 25355.04495360 .00000013 00000+0 10352-2 0 9994 2 26083 52.0016 252.7304 0003518 127.6388 246.1258 12.17671659175130 GLOBALSTAR M064 1 26084U 00008D 25354.50764984 -.00000086 00000+0 -34313-4 0 9993 2 26084 52.0040 77.4980 0001827 80.2337 279.8702 11.88539260189252 GLOBALSTAR M065 1 31571U 07020A 25351.59775860 -.00000114 00000+0 -59491-4 0 9998 2 31571 51.9915 28.0181 0009699 356.5964 173.4742 12.62015524856566 GLOBALSTAR M069 1 31573U 07020C 25355.08291204 -.00000054 00000+0 35627-3 0 9999 2 31573 52.0048 36.2291 0002185 140.6499 239.3423 12.23465100857002 GLOBALSTAR M072 1 31574U 07020D 25355.08352133 -.00000047 00000+0 50228-3 0 9995 2 31574 51.9904 214.4073 0001348 23.3738 138.6183 11.91654692853744 GLOBALSTAR M071 1 31576U 07020F 25355.18562899 -.00000021 00000+0 68722-3 0 9990 2 31576 52.0073 66.8279 0001491 128.9391 254.8827 12.18262800517736 GLOBALSTAR M067 1 32263U 07048A 25355.10268428 -.00000068 00000+0 21525-3 0 9998 2 32263 51.9701 208.9966 0002000 50.7422 123.2742 12.40683053832683 GLOBALSTAR M070 1 32264U 07048B 25355.06965492 -.00000075 00000+0 15860-3 0 9992 2 32264 51.9758 279.1791 0000526 63.2125 310.1371 12.62327558837276 GLOBALSTAR M066 1 32265U 07048C 25354.91255352 -.00000086 00000+0 68544-4 0 9993 2 32265 51.9569 209.6881 0005667 38.1502 334.9151 12.30383494838284 GLOBALSTAR M068 1 32266U 07048D 25355.04530384 -.00000092 00000+0 66155-4 0 9993 2 32266 51.9886 92.6431 0001551 159.1020 12.2408 12.62835596841167 GLOBALSTAR M079 1 37188U 10054A 25354.09052307 -.00000086 00000+0 10108-3 0 9999 2 37188 52.0069 293.8690 0000713 31.2994 342.4928 12.62261594699933 GLOBALSTAR M074 1 37189U 10054B 25355.14646247 -.00000082 00000+0 12328-3 0 9991 2 37189 52.0028 289.9471 0000812 58.0693 316.0153 12.62264215700679 GLOBALSTAR M076 1 37190U 10054C 25355.20083293 -.00000085 00000+0 10661-3 0 9997 2 37190 52.0041 289.9706 0000905 48.4455 91.7941 12.62268266700390 GLOBALSTAR M077 1 37191U 10054D 25355.12547233 -.00000088 00000+0 -17538-3 0 9992 2 37191 51.9979 271.5898 0001284 37.2561 100.0889 11.68176449700338 GLOBALSTAR M075 1 37192U 10054E 25351.73634080 -.00000091 00000+0 72174-4 0 9994 2 37192 51.9972 342.6695 0000324 70.0279 101.0008 12.62270606699024 GLOBALSTAR M073 1 37193U 10054F 25355.14039685 -.00000065 00000+0 21677-3 0 9996 2 37193 52.0054 246.2712 0001015 55.0068 109.8790 12.62268140701448 GLOBALSTAR M083 1 37739U 11033A 25354.99383542 -.00000085 00000+0 10736-3 0 9992 2 37739 51.9833 195.1885 0001009 73.7826 86.7402 12.62265935670449 GLOBALSTAR M088 1 37740U 11033B 25354.61848301 -.00000121 00000+0 -93919-4 0 9999 2 37740 52.0213 102.3248 0000878 121.2435 252.1210 12.62270980665947 GLOBALSTAR M091 1 37741U 11033C 25355.18900894 -.00000100 00000+0 21034-4 0 9994 2 37741 52.0009 63.8189 0000506 138.9723 247.4195 12.62268175666807 GLOBALSTAR M085 1 37742U 11033D 25355.09308520 -.00000102 00000+0 88648-5 0 9990 2 37742 52.0145 15.2469 0000075 153.7825 217.1901 12.62267355667304 GLOBALSTAR M081 1 37743U 11033E 25351.59018587 -.00000087 00000+0 92331-4 0 9998 2 37743 51.9980 28.5496 0000222 94.7932 71.3857 12.62270971667009 GLOBALSTAR M089 1 37744U 11033F 25354.71899368 -.00000093 00000+0 59553-4 0 9996 2 37744 51.9952 333.2169 0000649 70.5452 100.7291 12.62262525668246 GLOBALSTAR M084 1 38040U 11080A 25354.85594390 -.00000088 00000+0 86613-4 0 9991 2 38040 51.9982 200.1878 0001365 81.9379 290.9955 12.62266768646246 GLOBALSTAR M080 1 38041U 11080B 25354.59087416 -.00000076 00000+0 15235-3 0 9997 2 38041 52.0032 202.6511 0000721 101.5817 276.1704 12.62265097646339 GLOBALSTAR M082 1 38042U 11080C 25354.87251644 -.00000117 00000+0 -74223-4 0 9995 2 38042 52.0050 157.2747 0000819 110.8089 37.0582 12.62266383647077 GLOBALSTAR M092 1 38043U 11080D 25355.08204836 -.00000072 00000+0 17933-3 0 9994 2 38043 52.0076 247.0257 0000904 68.8702 71.2437 12.62268544645550 GLOBALSTAR M090 1 38044U 11080E 25354.81835075 -.00000124 00000+0 -11176-3 0 9992 2 38044 52.0097 151.3382 0000912 94.2643 46.2365 12.62265515647184 GLOBALSTAR M086 1 38045U 11080F 25354.84862535 -.00000111 00000+0 -39116-4 0 9998 2 38045 51.9876 151.4664 0001483 51.0461 117.2317 12.62281365647137 GLOBALSTAR M097 1 39072U 13005A 25354.91900701 -.00000115 00000+0 -63047-4 0 9998 2 39072 52.0061 65.9988 0000450 110.2002 249.8913 12.62267641594390 GLOBALSTAR M093 1 39073U 13005B 25355.20963685 -.00000095 00000+0 48380-4 0 9991 2 39073 52.0117 58.3944 0000198 96.4363 263.6527 12.62271120594386 GLOBALSTAR M094 1 39074U 13005C 25355.20951779 -.00000111 00000+0 -39712-4 0 9992 2 39074 51.9980 332.6897 0000384 20.9615 339.1268 12.62265353595997 GLOBALSTAR M096 1 39075U 13005D 25355.06418543 -.00000097 00000+0 36234-4 0 9992 2 39075 52.0090 21.7908 0000054 101.0334 259.0539 12.62269448594892 GLOBALSTAR M078 1 39076U 13005E 25354.48388962 -.00000118 00000+0 -81536-4 0 9999 2 39076 51.9871 107.8157 0000814 181.4163 178.6701 12.62272478593440 GLOBALSTAR M095 1 39077U 13005F 25354.58934385 -.00000121 00000+0 -96017-4 0 9991 2 39077 52.0075 104.8445 0000469 138.0262 222.0640 12.62267210593310 GLOBALSTAR M087 1 52888U 22064A 25354.83995854 -.00000070 00000+0 18675-3 0 9992 2 52888 51.9988 245.4235 0000777 54.3781 305.7158 12.62261635168612